Index of /20260422/WXO-DD/model_gdps/15km/00/111
Name Last modified Size Description
Parent Directory -
20260422T00Z_MSC_GDPS_AbsoluteVorticity_IsbL-0200_LatLon0.15_PT111H.grib2 2026-04-22 04:33 1.2M
20260422T00Z_MSC_GDPS_AbsoluteVorticity_IsbL-0250_LatLon0.15_PT111H.grib2 2026-04-22 04:33 1.3M
20260422T00Z_MSC_GDPS_AbsoluteVorticity_IsbL-0500_LatLon0.15_PT111H.grib2 2026-04-22 04:33 1.4M
20260422T00Z_MSC_GDPS_AbsoluteVorticity_IsbL-0700_LatLon0.15_PT111H.grib2 2026-04-22 04:33 1.3M
20260422T00Z_MSC_GDPS_AbsoluteVorticity_IsbL-0850_LatLon0.15_PT111H.grib2 2026-04-22 04:33 1.6M
20260422T00Z_MSC_GDPS_AirTemp_AGL-120m_LatLon0.15_PT111H.grib2 2026-04-22 04:33 915K
20260422T00Z_MSC_GDPS_AirTemp_AGL-2m_LatLon0.15_PT111H.grib2 2026-04-22 04:33 1.0M
20260422T00Z_MSC_GDPS_AirTemp_AGL-40m_LatLon0.15_PT111H.grib2 2026-04-22 04:33 820K
20260422T00Z_MSC_GDPS_AirTemp_AGL-80m_LatLon0.15_PT111H.grib2 2026-04-22 04:33 925K
20260422T00Z_MSC_GDPS_AirTemp_IsbL-0001_LatLon0.15_PT111H.grib2 2026-04-22 04:33 644K
20260422T00Z_MSC_GDPS_AirTemp_IsbL-0005_LatLon0.15_PT111H.grib2 2026-04-22 04:33 752K
20260422T00Z_MSC_GDPS_AirTemp_IsbL-0010_LatLon0.15_PT111H.grib2 2026-04-22 04:33 756K
20260422T00Z_MSC_GDPS_AirTemp_IsbL-0020_LatLon0.15_PT111H.grib2 2026-04-22 04:33 697K
20260422T00Z_MSC_GDPS_AirTemp_IsbL-0030_LatLon0.15_PT111H.grib2 2026-04-22 04:33 751K
20260422T00Z_MSC_GDPS_AirTemp_IsbL-0050_LatLon0.15_PT111H.grib2 2026-04-22 04:33 806K
20260422T00Z_MSC_GDPS_AirTemp_IsbL-0100_LatLon0.15_PT111H.grib2 2026-04-22 04:33 944K
20260422T00Z_MSC_GDPS_AirTemp_IsbL-0150_LatLon0.15_PT111H.grib2 2026-04-22 04:33 959K
20260422T00Z_MSC_GDPS_AirTemp_IsbL-0175_LatLon0.15_PT111H.grib2 2026-04-22 04:33 950K
20260422T00Z_MSC_GDPS_AirTemp_IsbL-0200_LatLon0.15_PT111H.grib2 2026-04-22 04:33 964K
20260422T00Z_MSC_GDPS_AirTemp_IsbL-0225_LatLon0.15_PT111H.grib2 2026-04-22 04:33 971K
20260422T00Z_MSC_GDPS_AirTemp_IsbL-0250_LatLon0.15_PT111H.grib2 2026-04-22 04:33 1.0M
20260422T00Z_MSC_GDPS_AirTemp_IsbL-0275_LatLon0.15_PT111H.grib2 2026-04-22 04:33 1.0M
20260422T00Z_MSC_GDPS_AirTemp_IsbL-0300_LatLon0.15_PT111H.grib2 2026-04-22 04:33 1.0M
20260422T00Z_MSC_GDPS_AirTemp_IsbL-0350_LatLon0.15_PT111H.grib2 2026-04-22 04:33 929K
20260422T00Z_MSC_GDPS_AirTemp_IsbL-0400_LatLon0.15_PT111H.grib2 2026-04-22 04:33 936K
20260422T00Z_MSC_GDPS_AirTemp_IsbL-0450_LatLon0.15_PT111H.grib2 2026-04-22 04:33 960K
20260422T00Z_MSC_GDPS_AirTemp_IsbL-0500_LatLon0.15_PT111H.grib2 2026-04-22 04:33 1.0M
20260422T00Z_MSC_GDPS_AirTemp_IsbL-0550_LatLon0.15_PT111H.grib2 2026-04-22 04:33 804K
20260422T00Z_MSC_GDPS_AirTemp_IsbL-0600_LatLon0.15_PT111H.grib2 2026-04-22 04:33 894K
20260422T00Z_MSC_GDPS_AirTemp_IsbL-0650_LatLon0.15_PT111H.grib2 2026-04-22 04:33 922K
20260422T00Z_MSC_GDPS_AirTemp_IsbL-0700_LatLon0.15_PT111H.grib2 2026-04-22 04:33 960K
20260422T00Z_MSC_GDPS_AirTemp_IsbL-0750_LatLon0.15_PT111H.grib2 2026-04-22 04:33 1.0M
20260422T00Z_MSC_GDPS_AirTemp_IsbL-0800_LatLon0.15_PT111H.grib2 2026-04-22 04:33 1.1M
20260422T00Z_MSC_GDPS_AirTemp_IsbL-0850_LatLon0.15_PT111H.grib2 2026-04-22 04:33 1.1M
20260422T00Z_MSC_GDPS_AirTemp_IsbL-0875_LatLon0.15_PT111H.grib2 2026-04-22 04:33 1.2M
20260422T00Z_MSC_GDPS_AirTemp_IsbL-0900_LatLon0.15_PT111H.grib2 2026-04-22 04:33 1.1M
20260422T00Z_MSC_GDPS_AirTemp_IsbL-0925_LatLon0.15_PT111H.grib2 2026-04-22 04:33 1.1M
20260422T00Z_MSC_GDPS_AirTemp_IsbL-0950_LatLon0.15_PT111H.grib2 2026-04-22 04:33 1.2M
20260422T00Z_MSC_GDPS_AirTemp_IsbL-0970_LatLon0.15_PT111H.grib2 2026-04-22 04:33 1.2M
20260422T00Z_MSC_GDPS_AirTemp_IsbL-0985_LatLon0.15_PT111H.grib2 2026-04-22 04:33 1.2M
20260422T00Z_MSC_GDPS_AirTemp_IsbL-1000_LatLon0.15_PT111H.grib2 2026-04-22 04:33 1.1M
20260422T00Z_MSC_GDPS_AirTemp_IsbL-1015_LatLon0.15_PT111H.grib2 2026-04-22 04:33 1.1M
20260422T00Z_MSC_GDPS_Albedo_Sfc_LatLon0.15_PT111H.grib2 2026-04-22 04:33 246K
20260422T00Z_MSC_GDPS_CAPE_Sfc_LatLon0.15_PT111H.grib2 2026-04-22 04:33 4.0M
20260422T00Z_MSC_GDPS_CIN_Sfc_LatLon0.15_PT111H.grib2 2026-04-22 04:33 2.9M
20260422T00Z_MSC_GDPS_CloudWater_EAtm_LatLon0.15_PT111H.grib2 2026-04-22 04:33 540K
20260422T00Z_MSC_GDPS_ConvectivePrecip-Accum_Sfc_LatLon0.15_PT111H.grib2 2026-04-22 04:33 3.4M
20260422T00Z_MSC_GDPS_DewPointDepression_AGL-2m_LatLon0.15_PT111H.grib2 2026-04-22 04:33 757K
20260422T00Z_MSC_GDPS_DewPointDepression_IsbL-0010_LatLon0.15_PT111H.grib2 2026-04-22 04:33 34K
20260422T00Z_MSC_GDPS_DewPointDepression_IsbL-0020_LatLon0.15_PT111H.grib2 2026-04-22 04:33 72K
20260422T00Z_MSC_GDPS_DewPointDepression_IsbL-0030_LatLon0.15_PT111H.grib2 2026-04-22 04:33 84K
20260422T00Z_MSC_GDPS_DewPointDepression_IsbL-0050_LatLon0.15_PT111H.grib2 2026-04-22 04:33 364K
20260422T00Z_MSC_GDPS_DewPointDepression_IsbL-0100_LatLon0.15_PT111H.grib2 2026-04-22 04:33 391K
20260422T00Z_MSC_GDPS_DewPointDepression_IsbL-0150_LatLon0.15_PT111H.grib2 2026-04-22 04:33 460K
20260422T00Z_MSC_GDPS_DewPointDepression_IsbL-0175_LatLon0.15_PT111H.grib2 2026-04-22 04:33 553K
20260422T00Z_MSC_GDPS_DewPointDepression_IsbL-0200_LatLon0.15_PT111H.grib2 2026-04-22 04:33 652K
20260422T00Z_MSC_GDPS_DewPointDepression_IsbL-0225_LatLon0.15_PT111H.grib2 2026-04-22 04:33 771K
20260422T00Z_MSC_GDPS_DewPointDepression_IsbL-0250_LatLon0.15_PT111H.grib2 2026-04-22 04:33 854K
20260422T00Z_MSC_GDPS_DewPointDepression_IsbL-0275_LatLon0.15_PT111H.grib2 2026-04-22 04:33 878K
20260422T00Z_MSC_GDPS_DewPointDepression_IsbL-0300_LatLon0.15_PT111H.grib2 2026-04-22 04:33 926K
20260422T00Z_MSC_GDPS_DewPointDepression_IsbL-0350_LatLon0.15_PT111H.grib2 2026-04-22 04:33 960K
20260422T00Z_MSC_GDPS_DewPointDepression_IsbL-0400_LatLon0.15_PT111H.grib2 2026-04-22 04:33 1.0M
20260422T00Z_MSC_GDPS_DewPointDepression_IsbL-0450_LatLon0.15_PT111H.grib2 2026-04-22 04:33 1.0M
20260422T00Z_MSC_GDPS_DewPointDepression_IsbL-0500_LatLon0.15_PT111H.grib2 2026-04-22 04:33 1.0M
20260422T00Z_MSC_GDPS_DewPointDepression_IsbL-0550_LatLon0.15_PT111H.grib2 2026-04-22 04:33 1.0M
20260422T00Z_MSC_GDPS_DewPointDepression_IsbL-0600_LatLon0.15_PT111H.grib2 2026-04-22 04:33 1.1M
20260422T00Z_MSC_GDPS_DewPointDepression_IsbL-0650_LatLon0.15_PT111H.grib2 2026-04-22 04:33 1.1M
20260422T00Z_MSC_GDPS_DewPointDepression_IsbL-0700_LatLon0.15_PT111H.grib2 2026-04-22 04:33 1.1M
20260422T00Z_MSC_GDPS_DewPointDepression_IsbL-0750_LatLon0.15_PT111H.grib2 2026-04-22 04:33 1.1M
20260422T00Z_MSC_GDPS_DewPointDepression_IsbL-0800_LatLon0.15_PT111H.grib2 2026-04-22 04:33 1.2M
20260422T00Z_MSC_GDPS_DewPointDepression_IsbL-0850_LatLon0.15_PT111H.grib2 2026-04-22 04:33 1.2M
20260422T00Z_MSC_GDPS_DewPointDepression_IsbL-0875_LatLon0.15_PT111H.grib2 2026-04-22 04:33 1.1M
20260422T00Z_MSC_GDPS_DewPointDepression_IsbL-0900_LatLon0.15_PT111H.grib2 2026-04-22 04:33 1.1M
20260422T00Z_MSC_GDPS_DewPointDepression_IsbL-0925_LatLon0.15_PT111H.grib2 2026-04-22 04:33 1.0M
20260422T00Z_MSC_GDPS_DewPointDepression_IsbL-0950_LatLon0.15_PT111H.grib2 2026-04-22 04:33 1.0M
20260422T00Z_MSC_GDPS_DewPointDepression_IsbL-0970_LatLon0.15_PT111H.grib2 2026-04-22 04:33 1.0M
20260422T00Z_MSC_GDPS_DewPointDepression_IsbL-0985_LatLon0.15_PT111H.grib2 2026-04-22 04:33 1.0M
20260422T00Z_MSC_GDPS_DewPointDepression_IsbL-1000_LatLon0.15_PT111H.grib2 2026-04-22 04:33 1.0M
20260422T00Z_MSC_GDPS_DewPointDepression_IsbL-1015_LatLon0.15_PT111H.grib2 2026-04-22 04:33 925K
20260422T00Z_MSC_GDPS_DewPoint_AGL-2m_LatLon0.15_PT111H.grib2 2026-04-22 04:33 615K
20260422T00Z_MSC_GDPS_DownwardLongwaveRadiationFlux-Accum_Sfc_LatLon0.15_PT111H.grib2 2026-04-22 04:33 787K
20260422T00Z_MSC_GDPS_DownwardShortwaveRadiationFlux-Accum_NTAtm_LatLon0.15_PT111H.grib2 2026-04-22 04:33 307K
20260422T00Z_MSC_GDPS_DownwardShortwaveRadiationFlux-Accum_Sfc_LatLon0.15_PT111H.grib2 2026-04-22 04:33 1.0M
20260422T00Z_MSC_GDPS_FreezingRain-Accum1h_Sfc_LatLon0.15_PT111H.grib2 2026-04-22 04:33 73K
20260422T00Z_MSC_GDPS_FreezingRain-Accum3h_Sfc_LatLon0.15_PT111H.grib2 2026-04-22 04:33 86K
20260422T00Z_MSC_GDPS_FreezingRain-Accum_Sfc_LatLon0.15_PT111H.grib2 2026-04-22 04:33 385K
20260422T00Z_MSC_GDPS_GeopotentialHeight_IsbL-0001_LatLon0.15_PT111H.grib2 2026-04-22 04:33 402K
20260422T00Z_MSC_GDPS_GeopotentialHeight_IsbL-0005_LatLon0.15_PT111H.grib2 2026-04-22 04:33 501K
20260422T00Z_MSC_GDPS_GeopotentialHeight_IsbL-0010_LatLon0.15_PT111H.grib2 2026-04-22 04:33 483K
20260422T00Z_MSC_GDPS_GeopotentialHeight_IsbL-0020_LatLon0.15_PT111H.grib2 2026-04-22 04:33 419K
20260422T00Z_MSC_GDPS_GeopotentialHeight_IsbL-0030_LatLon0.15_PT111H.grib2 2026-04-22 04:33 580K
20260422T00Z_MSC_GDPS_GeopotentialHeight_IsbL-0050_LatLon0.15_PT111H.grib2 2026-04-22 04:33 576K
20260422T00Z_MSC_GDPS_GeopotentialHeight_IsbL-0100_LatLon0.15_PT111H.grib2 2026-04-22 04:33 607K
20260422T00Z_MSC_GDPS_GeopotentialHeight_IsbL-0150_LatLon0.15_PT111H.grib2 2026-04-22 04:33 625K
20260422T00Z_MSC_GDPS_GeopotentialHeight_IsbL-0175_LatLon0.15_PT111H.grib2 2026-04-22 04:33 630K
20260422T00Z_MSC_GDPS_GeopotentialHeight_IsbL-0200_LatLon0.15_PT111H.grib2 2026-04-22 04:33 634K
20260422T00Z_MSC_GDPS_GeopotentialHeight_IsbL-0225_LatLon0.15_PT111H.grib2 2026-04-22 04:33 631K
20260422T00Z_MSC_GDPS_GeopotentialHeight_IsbL-0250_LatLon0.15_PT111H.grib2 2026-04-22 04:33 637K
20260422T00Z_MSC_GDPS_GeopotentialHeight_IsbL-0275_LatLon0.15_PT111H.grib2 2026-04-22 04:33 640K
20260422T00Z_MSC_GDPS_GeopotentialHeight_IsbL-0300_LatLon0.15_PT111H.grib2 2026-04-22 04:33 632K
20260422T00Z_MSC_GDPS_GeopotentialHeight_IsbL-0350_LatLon0.15_PT111H.grib2 2026-04-22 04:33 631K
20260422T00Z_MSC_GDPS_GeopotentialHeight_IsbL-0400_LatLon0.15_PT111H.grib2 2026-04-22 04:33 622K
20260422T00Z_MSC_GDPS_GeopotentialHeight_IsbL-0450_LatLon0.15_PT111H.grib2 2026-04-22 04:33 611K
20260422T00Z_MSC_GDPS_GeopotentialHeight_IsbL-0500_LatLon0.15_PT111H.grib2 2026-04-22 04:33 532K
20260422T00Z_MSC_GDPS_GeopotentialHeight_IsbL-0550_LatLon0.15_PT111H.grib2 2026-04-22 04:33 524K
20260422T00Z_MSC_GDPS_GeopotentialHeight_IsbL-0600_LatLon0.15_PT111H.grib2 2026-04-22 04:33 690K
20260422T00Z_MSC_GDPS_GeopotentialHeight_IsbL-0650_LatLon0.15_PT111H.grib2 2026-04-22 04:33 688K
20260422T00Z_MSC_GDPS_GeopotentialHeight_IsbL-0700_LatLon0.15_PT111H.grib2 2026-04-22 04:33 690K
20260422T00Z_MSC_GDPS_GeopotentialHeight_IsbL-0750_LatLon0.15_PT111H.grib2 2026-04-22 04:33 690K
20260422T00Z_MSC_GDPS_GeopotentialHeight_IsbL-0800_LatLon0.15_PT111H.grib2 2026-04-22 04:33 705K
20260422T00Z_MSC_GDPS_GeopotentialHeight_IsbL-0850_LatLon0.15_PT111H.grib2 2026-04-22 04:33 709K
20260422T00Z_MSC_GDPS_GeopotentialHeight_IsbL-0875_LatLon0.15_PT111H.grib2 2026-04-22 04:33 718K
20260422T00Z_MSC_GDPS_GeopotentialHeight_IsbL-0900_LatLon0.15_PT111H.grib2 2026-04-22 04:33 725K
20260422T00Z_MSC_GDPS_GeopotentialHeight_IsbL-0925_LatLon0.15_PT111H.grib2 2026-04-22 04:33 732K
20260422T00Z_MSC_GDPS_GeopotentialHeight_IsbL-0950_LatLon0.15_PT111H.grib2 2026-04-22 04:33 736K
20260422T00Z_MSC_GDPS_GeopotentialHeight_IsbL-0970_LatLon0.15_PT111H.grib2 2026-04-22 04:33 747K
20260422T00Z_MSC_GDPS_GeopotentialHeight_IsbL-0985_LatLon0.15_PT111H.grib2 2026-04-22 04:33 766K
20260422T00Z_MSC_GDPS_GeopotentialHeight_IsbL-1000_LatLon0.15_PT111H.grib2 2026-04-22 04:33 788K
20260422T00Z_MSC_GDPS_GeopotentialHeight_IsbL-1015_LatLon0.15_PT111H.grib2 2026-04-22 04:33 813K
20260422T00Z_MSC_GDPS_Humidex_Sfc_LatLon0.15_PT111H.grib2 2026-04-22 04:33 5.3M
20260422T00Z_MSC_GDPS_IcePellets-Accum1h_Sfc_LatLon0.15_PT111H.grib2 2026-04-22 04:33 17K
20260422T00Z_MSC_GDPS_IcePellets-Accum3h_Sfc_LatLon0.15_PT111H.grib2 2026-04-22 04:33 23K
20260422T00Z_MSC_GDPS_IcePellets-Accum_Sfc_LatLon0.15_PT111H.grib2 2026-04-22 04:33 141K
20260422T00Z_MSC_GDPS_KIndex_Sfc_LatLon0.15_PT111H.grib2 2026-04-22 04:33 6.5M
20260422T00Z_MSC_GDPS_LatentHeatNetFlux_Sfc_LatLon0.15_PT111H.grib2 2026-04-22 04:33 709K
20260422T00Z_MSC_GDPS_LiftedIndex-MU-VT_IsbL-0500_LatLon0.15_PT111H.grib2 2026-04-22 04:33 5.4M
20260422T00Z_MSC_GDPS_NetLongwaveRadiationFlux-Accum_Sfc_LatLon0.15_PT111H.grib2 2026-04-22 04:33 1.0M
20260422T00Z_MSC_GDPS_NetShortwaveRadiationFlux-Accum_Sfc_LatLon0.15_PT111H.grib2 2026-04-22 04:33 1.0M
20260422T00Z_MSC_GDPS_O3MixingRatio_LatLon0.15_PT111H.grib2 2026-04-22 04:59 2.2M
20260422T00Z_MSC_GDPS_O3_EAtm_LatLon0.15_PT111H.grib2 2026-04-22 04:59 2.4M
20260422T00Z_MSC_GDPS_PlanetaryBoundaryLayerHeight_Sfc_LatLon0.15_PT111H.grib2 2026-04-22 04:33 2.5M
20260422T00Z_MSC_GDPS_Precip-Accum1h_Sfc_LatLon0.15_PT111H.grib2 2026-04-22 04:33 3.3M
20260422T00Z_MSC_GDPS_Precip-Accum3h_Sfc_LatLon0.15_PT111H.grib2 2026-04-22 04:33 3.6M
20260422T00Z_MSC_GDPS_Precip-Accum_Sfc_LatLon0.15_PT111H.grib2 2026-04-22 04:33 5.1M
20260422T00Z_MSC_GDPS_PrecipRate_Sfc_LatLon0.15_PT111H.grib2 2026-04-22 04:33 3.1M
20260422T00Z_MSC_GDPS_PrecipType-Instant_Sfc_LatLon0.15_PT111H.grib2 2026-04-22 04:33 1.7M
20260422T00Z_MSC_GDPS_Pressure_MSL_LatLon0.15_PT111H.grib2 2026-04-22 04:33 725K
20260422T00Z_MSC_GDPS_Pressure_PVU-1.5_LatLon0.15_PT111H.grib2 2026-04-22 04:33 5.8M
20260422T00Z_MSC_GDPS_Pressure_PVU-1_LatLon0.15_PT111H.grib2 2026-04-22 04:33 6.0M
20260422T00Z_MSC_GDPS_Pressure_PVU-2_LatLon0.15_PT111H.grib2 2026-04-22 04:33 5.6M
20260422T00Z_MSC_GDPS_Pressure_Sfc_LatLon0.15_PT111H.grib2 2026-04-22 04:33 1.1M
20260422T00Z_MSC_GDPS_RadiativeTemp_Sfc_LatLon0.15_PT111H.grib2 2026-04-22 04:33 499K
20260422T00Z_MSC_GDPS_Rain-Accum1h_Sfc_LatLon0.15_PT111H.grib2 2026-04-22 04:33 1.7M
20260422T00Z_MSC_GDPS_Rain-Accum3h_Sfc_LatLon0.15_PT111H.grib2 2026-04-22 04:33 1.9M
20260422T00Z_MSC_GDPS_Rain-Accum_Sfc_LatLon0.15_PT111H.grib2 2026-04-22 04:33 3.9M
20260422T00Z_MSC_GDPS_RelativeHumidity_AGL-2m_LatLon0.15_PT111H.grib2 2026-04-22 04:33 1.0M
20260422T00Z_MSC_GDPS_RelativeHumidity_IsbL-0010_LatLon0.15_PT111H.grib2 2026-04-22 04:33 251K
20260422T00Z_MSC_GDPS_RelativeHumidity_IsbL-0020_LatLon0.15_PT111H.grib2 2026-04-22 04:33 264K
20260422T00Z_MSC_GDPS_RelativeHumidity_IsbL-0030_LatLon0.15_PT111H.grib2 2026-04-22 04:33 338K
20260422T00Z_MSC_GDPS_RelativeHumidity_IsbL-0050_LatLon0.15_PT111H.grib2 2026-04-22 04:33 415K
20260422T00Z_MSC_GDPS_RelativeHumidity_IsbL-0100_LatLon0.15_PT111H.grib2 2026-04-22 04:33 488K
20260422T00Z_MSC_GDPS_RelativeHumidity_IsbL-0150_LatLon0.15_PT111H.grib2 2026-04-22 04:33 646K
20260422T00Z_MSC_GDPS_RelativeHumidity_IsbL-0175_LatLon0.15_PT111H.grib2 2026-04-22 04:33 775K
20260422T00Z_MSC_GDPS_RelativeHumidity_IsbL-0200_LatLon0.15_PT111H.grib2 2026-04-22 04:33 693K
20260422T00Z_MSC_GDPS_RelativeHumidity_IsbL-0225_LatLon0.15_PT111H.grib2 2026-04-22 04:33 780K
20260422T00Z_MSC_GDPS_RelativeHumidity_IsbL-0250_LatLon0.15_PT111H.grib2 2026-04-22 04:33 859K
20260422T00Z_MSC_GDPS_RelativeHumidity_IsbL-0275_LatLon0.15_PT111H.grib2 2026-04-22 04:33 889K
20260422T00Z_MSC_GDPS_RelativeHumidity_IsbL-0300_LatLon0.15_PT111H.grib2 2026-04-22 04:33 937K
20260422T00Z_MSC_GDPS_RelativeHumidity_IsbL-0350_LatLon0.15_PT111H.grib2 2026-04-22 04:33 962K
20260422T00Z_MSC_GDPS_RelativeHumidity_IsbL-0400_LatLon0.15_PT111H.grib2 2026-04-22 04:33 1.0M
20260422T00Z_MSC_GDPS_RelativeHumidity_IsbL-0450_LatLon0.15_PT111H.grib2 2026-04-22 04:33 1.0M
20260422T00Z_MSC_GDPS_RelativeHumidity_IsbL-0500_LatLon0.15_PT111H.grib2 2026-04-22 04:33 1.0M
20260422T00Z_MSC_GDPS_RelativeHumidity_IsbL-0550_LatLon0.15_PT111H.grib2 2026-04-22 04:33 1.0M
20260422T00Z_MSC_GDPS_RelativeHumidity_IsbL-0600_LatLon0.15_PT111H.grib2 2026-04-22 04:33 1.1M
20260422T00Z_MSC_GDPS_RelativeHumidity_IsbL-0650_LatLon0.15_PT111H.grib2 2026-04-22 04:33 1.1M
20260422T00Z_MSC_GDPS_RelativeHumidity_IsbL-0700_LatLon0.15_PT111H.grib2 2026-04-22 04:33 1.2M
20260422T00Z_MSC_GDPS_RelativeHumidity_IsbL-0750_LatLon0.15_PT111H.grib2 2026-04-22 04:33 1.2M
20260422T00Z_MSC_GDPS_RelativeHumidity_IsbL-0800_LatLon0.15_PT111H.grib2 2026-04-22 04:33 1.2M
20260422T00Z_MSC_GDPS_RelativeHumidity_IsbL-0850_LatLon0.15_PT111H.grib2 2026-04-22 04:33 1.3M
20260422T00Z_MSC_GDPS_RelativeHumidity_IsbL-0875_LatLon0.15_PT111H.grib2 2026-04-22 04:33 1.3M
20260422T00Z_MSC_GDPS_RelativeHumidity_IsbL-0900_LatLon0.15_PT111H.grib2 2026-04-22 04:33 1.2M
20260422T00Z_MSC_GDPS_RelativeHumidity_IsbL-0925_LatLon0.15_PT111H.grib2 2026-04-22 04:33 1.2M
20260422T00Z_MSC_GDPS_RelativeHumidity_IsbL-0950_LatLon0.15_PT111H.grib2 2026-04-22 04:33 1.2M
20260422T00Z_MSC_GDPS_RelativeHumidity_IsbL-0970_LatLon0.15_PT111H.grib2 2026-04-22 04:33 1.2M
20260422T00Z_MSC_GDPS_RelativeHumidity_IsbL-0985_LatLon0.15_PT111H.grib2 2026-04-22 04:33 1.2M
20260422T00Z_MSC_GDPS_RelativeHumidity_IsbL-1000_LatLon0.15_PT111H.grib2 2026-04-22 04:33 1.1M
20260422T00Z_MSC_GDPS_RelativeHumidity_IsbL-1015_LatLon0.15_PT111H.grib2 2026-04-22 04:33 1.1M
20260422T00Z_MSC_GDPS_RelativeVorticity_IsbL-0200_LatLon0.15_PT111H.grib2 2026-04-22 04:33 1.2M
20260422T00Z_MSC_GDPS_RelativeVorticity_IsbL-0250_LatLon0.15_PT111H.grib2 2026-04-22 04:33 1.6M
20260422T00Z_MSC_GDPS_RelativeVorticity_IsbL-0500_LatLon0.15_PT111H.grib2 2026-04-22 04:33 1.4M
20260422T00Z_MSC_GDPS_RelativeVorticity_IsbL-0700_LatLon0.15_PT111H.grib2 2026-04-22 04:33 1.6M
20260422T00Z_MSC_GDPS_RelativeVorticity_IsbL-0850_LatLon0.15_PT111H.grib2 2026-04-22 04:33 1.6M
20260422T00Z_MSC_GDPS_Runoff-Accum_Sfc_LatLon0.15_PT111H.grib2 2026-04-22 04:33 124K
20260422T00Z_MSC_GDPS_SensibleHeatNetFlux_Sfc_LatLon0.15_PT111H.grib2 2026-04-22 04:33 476K
20260422T00Z_MSC_GDPS_ShowalterIndex_IsbL-0500_LatLon0.15_PT111H.grib2 2026-04-22 04:33 6.2M
20260422T00Z_MSC_GDPS_Snow-Accum1h_Sfc_LatLon0.15_PT111H.grib2 2026-04-22 04:33 1.1M
20260422T00Z_MSC_GDPS_Snow-Accum3h_Sfc_LatLon0.15_PT111H.grib2 2026-04-22 04:33 1.1M
20260422T00Z_MSC_GDPS_Snow-Accum_Sfc_LatLon0.15_PT111H.grib2 2026-04-22 04:33 2.0M
20260422T00Z_MSC_GDPS_SnowDensity_Sfc_LatLon0.15_PT111H.grib2 2026-04-22 04:33 270K
20260422T00Z_MSC_GDPS_SnowDepth_Sfc_LatLon0.15_PT111H.grib2 2026-04-22 04:33 1.8M
20260422T00Z_MSC_GDPS_SoilTemp_DBS-0to10cm_LatLon0.15_PT111H.grib2 2026-04-22 04:33 510K
20260422T00Z_MSC_GDPS_SoilTemp_Sfc_LatLon0.15_PT111H.grib2 2026-04-22 04:33 587K
20260422T00Z_MSC_GDPS_SoilVolumetricIceContent_Sfc_LatLon0.15_PT111H.grib2 2026-04-22 04:33 215K
20260422T00Z_MSC_GDPS_SoilVolumetricWaterContent_DBS-0to10cm_LatLon0.15_PT111H.grib2 2026-04-22 04:33 567K
20260422T00Z_MSC_GDPS_SoilVolumetricWaterContent_DBS-0to1cm_LatLon0.15_PT111H.grib2 2026-04-22 04:33 654K
20260422T00Z_MSC_GDPS_SpecificHumidity_AGL-120m_LatLon0.15_PT111H.grib2 2026-04-22 04:33 1.1M
20260422T00Z_MSC_GDPS_SpecificHumidity_AGL-2m_LatLon0.15_PT111H.grib2 2026-04-22 04:33 1.2M
20260422T00Z_MSC_GDPS_SpecificHumidity_AGL-40m_LatLon0.15_PT111H.grib2 2026-04-22 04:33 1.1M
20260422T00Z_MSC_GDPS_SpecificHumidity_AGL-80m_LatLon0.15_PT111H.grib2 2026-04-22 04:33 1.1M
20260422T00Z_MSC_GDPS_SpecificHumidity_IsbL-0001_LatLon0.15_PT111H.grib2 2026-04-22 04:33 1.2M
20260422T00Z_MSC_GDPS_SpecificHumidity_IsbL-0005_LatLon0.15_PT111H.grib2 2026-04-22 04:33 1.4M
20260422T00Z_MSC_GDPS_SpecificHumidity_IsbL-0010_LatLon0.15_PT111H.grib2 2026-04-22 04:33 1.2M
20260422T00Z_MSC_GDPS_SpecificHumidity_IsbL-0020_LatLon0.15_PT111H.grib2 2026-04-22 04:33 1.3M
20260422T00Z_MSC_GDPS_SpecificHumidity_IsbL-0030_LatLon0.15_PT111H.grib2 2026-04-22 04:33 1.6M
20260422T00Z_MSC_GDPS_SpecificHumidity_IsbL-0050_LatLon0.15_PT111H.grib2 2026-04-22 04:33 1.3M
20260422T00Z_MSC_GDPS_SpecificHumidity_IsbL-0100_LatLon0.15_PT111H.grib2 2026-04-22 04:33 1.3M
20260422T00Z_MSC_GDPS_SpecificHumidity_IsbL-0150_LatLon0.15_PT111H.grib2 2026-04-22 04:33 1.0M
20260422T00Z_MSC_GDPS_SpecificHumidity_IsbL-0175_LatLon0.15_PT111H.grib2 2026-04-22 04:33 1.3M
20260422T00Z_MSC_GDPS_SpecificHumidity_IsbL-0200_LatLon0.15_PT111H.grib2 2026-04-22 04:33 1.3M
20260422T00Z_MSC_GDPS_SpecificHumidity_IsbL-0225_LatLon0.15_PT111H.grib2 2026-04-22 04:33 1.3M
20260422T00Z_MSC_GDPS_SpecificHumidity_IsbL-0250_LatLon0.15_PT111H.grib2 2026-04-22 04:33 1.4M
20260422T00Z_MSC_GDPS_SpecificHumidity_IsbL-0275_LatLon0.15_PT111H.grib2 2026-04-22 04:33 1.3M
20260422T00Z_MSC_GDPS_SpecificHumidity_IsbL-0300_LatLon0.15_PT111H.grib2 2026-04-22 04:33 1.2M
20260422T00Z_MSC_GDPS_SpecificHumidity_IsbL-0350_LatLon0.15_PT111H.grib2 2026-04-22 04:33 1.2M
20260422T00Z_MSC_GDPS_SpecificHumidity_IsbL-0400_LatLon0.15_PT111H.grib2 2026-04-22 04:33 1.5M
20260422T00Z_MSC_GDPS_SpecificHumidity_IsbL-0450_LatLon0.15_PT111H.grib2 2026-04-22 04:33 1.6M
20260422T00Z_MSC_GDPS_SpecificHumidity_IsbL-0500_LatLon0.15_PT111H.grib2 2026-04-22 04:33 1.4M
20260422T00Z_MSC_GDPS_SpecificHumidity_IsbL-0550_LatLon0.15_PT111H.grib2 2026-04-22 04:33 1.6M
20260422T00Z_MSC_GDPS_SpecificHumidity_IsbL-0600_LatLon0.15_PT111H.grib2 2026-04-22 04:33 1.7M
20260422T00Z_MSC_GDPS_SpecificHumidity_IsbL-0650_LatLon0.15_PT111H.grib2 2026-04-22 04:33 1.5M
20260422T00Z_MSC_GDPS_SpecificHumidity_IsbL-0700_LatLon0.15_PT111H.grib2 2026-04-22 04:33 1.6M
20260422T00Z_MSC_GDPS_SpecificHumidity_IsbL-0750_LatLon0.15_PT111H.grib2 2026-04-22 04:33 1.7M
20260422T00Z_MSC_GDPS_SpecificHumidity_IsbL-0800_LatLon0.15_PT111H.grib2 2026-04-22 04:33 1.9M
20260422T00Z_MSC_GDPS_SpecificHumidity_IsbL-0850_LatLon0.15_PT111H.grib2 2026-04-22 04:33 1.9M
20260422T00Z_MSC_GDPS_SpecificHumidity_IsbL-0875_LatLon0.15_PT111H.grib2 2026-04-22 04:33 1.9M
20260422T00Z_MSC_GDPS_SpecificHumidity_IsbL-0900_LatLon0.15_PT111H.grib2 2026-04-22 04:33 1.9M
20260422T00Z_MSC_GDPS_SpecificHumidity_IsbL-0925_LatLon0.15_PT111H.grib2 2026-04-22 04:33 1.6M
20260422T00Z_MSC_GDPS_SpecificHumidity_IsbL-0950_LatLon0.15_PT111H.grib2 2026-04-22 04:33 1.6M
20260422T00Z_MSC_GDPS_SpecificHumidity_IsbL-0970_LatLon0.15_PT111H.grib2 2026-04-22 04:33 1.5M
20260422T00Z_MSC_GDPS_SpecificHumidity_IsbL-0985_LatLon0.15_PT111H.grib2 2026-04-22 04:33 1.5M
20260422T00Z_MSC_GDPS_SpecificHumidity_IsbL-1000_LatLon0.15_PT111H.grib2 2026-04-22 04:33 1.5M
20260422T00Z_MSC_GDPS_SpecificHumidity_IsbL-1015_LatLon0.15_PT111H.grib2 2026-04-22 04:33 1.5M
20260422T00Z_MSC_GDPS_SpecificHumidity_Sfc_LatLon0.15_PT111H.grib2 2026-04-22 04:33 590K
20260422T00Z_MSC_GDPS_Thickness_IsbL-0850to0700_LatLon0.15_PT111H.grib2 2026-04-22 04:33 467K
20260422T00Z_MSC_GDPS_Thickness_IsbL-1000to0500_LatLon0.15_PT111H.grib2 2026-04-22 04:33 369K
20260422T00Z_MSC_GDPS_Thickness_IsbL-1000to0850_LatLon0.15_PT111H.grib2 2026-04-22 04:33 490K
20260422T00Z_MSC_GDPS_TotalCloudCover_Sfc_LatLon0.15_PT111H.grib2 2026-04-22 04:33 846K
20260422T00Z_MSC_GDPS_TotalTotalsIndex_Sfc_LatLon0.15_PT111H.grib2 2026-04-22 04:33 6.2M
20260422T00Z_MSC_GDPS_UVIndex-ClearSky_Sfc_LatLon0.15_PT111H.grib2 2026-04-22 04:59 1.0M
20260422T00Z_MSC_GDPS_UVIndex_Sfc_LatLon0.15_PT111H.grib2 2026-04-22 04:59 1.5M
20260422T00Z_MSC_GDPS_UpwardLongwaveRadiationFlux_NTAtm_LatLon0.15_PT111H.grib2 2026-04-22 04:33 847K
20260422T00Z_MSC_GDPS_VerticalVelocity_IsbL-0200_LatLon0.15_PT111H.grib2 2026-04-22 04:33 930K
20260422T00Z_MSC_GDPS_VerticalVelocity_IsbL-0250_LatLon0.15_PT111H.grib2 2026-04-22 04:33 1.0M
20260422T00Z_MSC_GDPS_VerticalVelocity_IsbL-0500_LatLon0.15_PT111H.grib2 2026-04-22 04:33 1.0M
20260422T00Z_MSC_GDPS_VerticalVelocity_IsbL-0600_LatLon0.15_PT111H.grib2 2026-04-22 04:33 1.1M
20260422T00Z_MSC_GDPS_VerticalVelocity_IsbL-0700_LatLon0.15_PT111H.grib2 2026-04-22 04:33 1.1M
20260422T00Z_MSC_GDPS_VerticalVelocity_IsbL-0850_LatLon0.15_PT111H.grib2 2026-04-22 04:33 1.6M
20260422T00Z_MSC_GDPS_WindChill_Sfc_LatLon0.15_PT111H.grib2 2026-04-22 04:33 5.3M
20260422T00Z_MSC_GDPS_WindDir_AGL-10m_LatLon0.15_PT111H.grib2 2026-04-22 04:33 1.3M
20260422T00Z_MSC_GDPS_WindDir_AGL-120m_LatLon0.15_PT111H.grib2 2026-04-22 04:33 1.4M
20260422T00Z_MSC_GDPS_WindDir_AGL-40m_LatLon0.15_PT111H.grib2 2026-04-22 04:33 1.4M
20260422T00Z_MSC_GDPS_WindDir_AGL-80m_LatLon0.15_PT111H.grib2 2026-04-22 04:33 1.4M
20260422T00Z_MSC_GDPS_WindDir_IsbL-0001_LatLon0.15_PT111H.grib2 2026-04-22 04:33 654K
20260422T00Z_MSC_GDPS_WindDir_IsbL-0005_LatLon0.15_PT111H.grib2 2026-04-22 04:33 795K
20260422T00Z_MSC_GDPS_WindDir_IsbL-0010_LatLon0.15_PT111H.grib2 2026-04-22 04:33 847K
20260422T00Z_MSC_GDPS_WindDir_IsbL-0020_LatLon0.15_PT111H.grib2 2026-04-22 04:33 932K
20260422T00Z_MSC_GDPS_WindDir_IsbL-0030_LatLon0.15_PT111H.grib2 2026-04-22 04:33 921K
20260422T00Z_MSC_GDPS_WindDir_IsbL-0050_LatLon0.15_PT111H.grib2 2026-04-22 04:33 948K
20260422T00Z_MSC_GDPS_WindDir_IsbL-0100_LatLon0.15_PT111H.grib2 2026-04-22 04:33 1.0M
20260422T00Z_MSC_GDPS_WindDir_IsbL-0150_LatLon0.15_PT111H.grib2 2026-04-22 04:33 1.0M
20260422T00Z_MSC_GDPS_WindDir_IsbL-0175_LatLon0.15_PT111H.grib2 2026-04-22 04:33 1.0M
20260422T00Z_MSC_GDPS_WindDir_IsbL-0200_LatLon0.15_PT111H.grib2 2026-04-22 04:33 1.1M
20260422T00Z_MSC_GDPS_WindDir_IsbL-0225_LatLon0.15_PT111H.grib2 2026-04-22 04:33 1.1M
20260422T00Z_MSC_GDPS_WindDir_IsbL-0250_LatLon0.15_PT111H.grib2 2026-04-22 04:33 1.1M
20260422T00Z_MSC_GDPS_WindDir_IsbL-0275_LatLon0.15_PT111H.grib2 2026-04-22 04:33 1.2M
20260422T00Z_MSC_GDPS_WindDir_IsbL-0300_LatLon0.15_PT111H.grib2 2026-04-22 04:33 1.2M
20260422T00Z_MSC_GDPS_WindDir_IsbL-0350_LatLon0.15_PT111H.grib2 2026-04-22 04:33 1.2M
20260422T00Z_MSC_GDPS_WindDir_IsbL-0400_LatLon0.15_PT111H.grib2 2026-04-22 04:33 1.3M
20260422T00Z_MSC_GDPS_WindDir_IsbL-0450_LatLon0.15_PT111H.grib2 2026-04-22 04:33 1.3M
20260422T00Z_MSC_GDPS_WindDir_IsbL-0500_LatLon0.15_PT111H.grib2 2026-04-22 04:33 1.3M
20260422T00Z_MSC_GDPS_WindDir_IsbL-0550_LatLon0.15_PT111H.grib2 2026-04-22 04:33 1.4M
20260422T00Z_MSC_GDPS_WindDir_IsbL-0600_LatLon0.15_PT111H.grib2 2026-04-22 04:33 1.5M
20260422T00Z_MSC_GDPS_WindDir_IsbL-0650_LatLon0.15_PT111H.grib2 2026-04-22 04:33 1.6M
20260422T00Z_MSC_GDPS_WindDir_IsbL-0700_LatLon0.15_PT111H.grib2 2026-04-22 04:33 1.6M
20260422T00Z_MSC_GDPS_WindDir_IsbL-0750_LatLon0.15_PT111H.grib2 2026-04-22 04:33 1.7M
20260422T00Z_MSC_GDPS_WindDir_IsbL-0800_LatLon0.15_PT111H.grib2 2026-04-22 04:33 1.9M
20260422T00Z_MSC_GDPS_WindDir_IsbL-0850_LatLon0.15_PT111H.grib2 2026-04-22 04:33 1.9M
20260422T00Z_MSC_GDPS_WindDir_IsbL-0875_LatLon0.15_PT111H.grib2 2026-04-22 04:33 2.0M
20260422T00Z_MSC_GDPS_WindDir_IsbL-0900_LatLon0.15_PT111H.grib2 2026-04-22 04:33 2.0M
20260422T00Z_MSC_GDPS_WindDir_IsbL-0925_LatLon0.15_PT111H.grib2 2026-04-22 04:33 2.0M
20260422T00Z_MSC_GDPS_WindDir_IsbL-0950_LatLon0.15_PT111H.grib2 2026-04-22 04:33 2.0M
20260422T00Z_MSC_GDPS_WindDir_IsbL-0970_LatLon0.15_PT111H.grib2 2026-04-22 04:33 2.0M
20260422T00Z_MSC_GDPS_WindDir_IsbL-0985_LatLon0.15_PT111H.grib2 2026-04-22 04:33 2.0M
20260422T00Z_MSC_GDPS_WindDir_IsbL-1000_LatLon0.15_PT111H.grib2 2026-04-22 04:33 2.1M
20260422T00Z_MSC_GDPS_WindDir_IsbL-1015_LatLon0.15_PT111H.grib2 2026-04-22 04:33 2.0M
20260422T00Z_MSC_GDPS_WindGust-Max_AGL-10m_LatLon0.15_PT111H.grib2 2026-04-22 04:33 2.3M
20260422T00Z_MSC_GDPS_WindGust-Min_AGL-10m_LatLon0.15_PT111H.grib2 2026-04-22 04:33 2.2M
20260422T00Z_MSC_GDPS_WindGust_AGL-10m_LatLon0.15_PT111H.grib2 2026-04-22 04:33 2.2M
20260422T00Z_MSC_GDPS_WindSpeed_AGL-10m_LatLon0.15_PT111H.grib2 2026-04-22 04:33 1.1M
20260422T00Z_MSC_GDPS_WindSpeed_AGL-120m_LatLon0.15_PT111H.grib2 2026-04-22 04:33 1.3M
20260422T00Z_MSC_GDPS_WindSpeed_AGL-40m_LatLon0.15_PT111H.grib2 2026-04-22 04:33 1.2M
20260422T00Z_MSC_GDPS_WindSpeed_AGL-80m_LatLon0.15_PT111H.grib2 2026-04-22 04:33 1.2M
20260422T00Z_MSC_GDPS_WindSpeed_IsbL-0001_LatLon0.15_PT111H.grib2 2026-04-22 04:33 637K
20260422T00Z_MSC_GDPS_WindSpeed_IsbL-0005_LatLon0.15_PT111H.grib2 2026-04-22 04:33 610K
20260422T00Z_MSC_GDPS_WindSpeed_IsbL-0010_LatLon0.15_PT111H.grib2 2026-04-22 04:33 622K
20260422T00Z_MSC_GDPS_WindSpeed_IsbL-0020_LatLon0.15_PT111H.grib2 2026-04-22 04:33 855K
20260422T00Z_MSC_GDPS_WindSpeed_IsbL-0030_LatLon0.15_PT111H.grib2 2026-04-22 04:33 854K
20260422T00Z_MSC_GDPS_WindSpeed_IsbL-0050_LatLon0.15_PT111H.grib2 2026-04-22 04:33 1.0M
20260422T00Z_MSC_GDPS_WindSpeed_IsbL-0100_LatLon0.15_PT111H.grib2 2026-04-22 04:33 1.1M
20260422T00Z_MSC_GDPS_WindSpeed_IsbL-0150_LatLon0.15_PT111H.grib2 2026-04-22 04:33 1.0M
20260422T00Z_MSC_GDPS_WindSpeed_IsbL-0175_LatLon0.15_PT111H.grib2 2026-04-22 04:33 1.0M
20260422T00Z_MSC_GDPS_WindSpeed_IsbL-0200_LatLon0.15_PT111H.grib2 2026-04-22 04:33 1.0M
20260422T00Z_MSC_GDPS_WindSpeed_IsbL-0225_LatLon0.15_PT111H.grib2 2026-04-22 04:33 1.1M
20260422T00Z_MSC_GDPS_WindSpeed_IsbL-0250_LatLon0.15_PT111H.grib2 2026-04-22 04:33 1.1M
20260422T00Z_MSC_GDPS_WindSpeed_IsbL-0275_LatLon0.15_PT111H.grib2 2026-04-22 04:33 1.1M
20260422T00Z_MSC_GDPS_WindSpeed_IsbL-0300_LatLon0.15_PT111H.grib2 2026-04-22 04:33 1.1M
20260422T00Z_MSC_GDPS_WindSpeed_IsbL-0350_LatLon0.15_PT111H.grib2 2026-04-22 04:33 1.1M
20260422T00Z_MSC_GDPS_WindSpeed_IsbL-0400_LatLon0.15_PT111H.grib2 2026-04-22 04:33 1.1M
20260422T00Z_MSC_GDPS_WindSpeed_IsbL-0450_LatLon0.15_PT111H.grib2 2026-04-22 04:33 1.1M
20260422T00Z_MSC_GDPS_WindSpeed_IsbL-0500_LatLon0.15_PT111H.grib2 2026-04-22 04:33 1.1M
20260422T00Z_MSC_GDPS_WindSpeed_IsbL-0550_LatLon0.15_PT111H.grib2 2026-04-22 04:33 1.1M
20260422T00Z_MSC_GDPS_WindSpeed_IsbL-0600_LatLon0.15_PT111H.grib2 2026-04-22 04:33 1.1M
20260422T00Z_MSC_GDPS_WindSpeed_IsbL-0650_LatLon0.15_PT111H.grib2 2026-04-22 04:33 1.4M
20260422T00Z_MSC_GDPS_WindSpeed_IsbL-0700_LatLon0.15_PT111H.grib2 2026-04-22 04:33 1.5M
20260422T00Z_MSC_GDPS_WindSpeed_IsbL-0750_LatLon0.15_PT111H.grib2 2026-04-22 04:33 1.6M
20260422T00Z_MSC_GDPS_WindSpeed_IsbL-0800_LatLon0.15_PT111H.grib2 2026-04-22 04:33 1.8M
20260422T00Z_MSC_GDPS_WindSpeed_IsbL-0850_LatLon0.15_PT111H.grib2 2026-04-22 04:33 1.9M
20260422T00Z_MSC_GDPS_WindSpeed_IsbL-0875_LatLon0.15_PT111H.grib2 2026-04-22 04:33 1.9M
20260422T00Z_MSC_GDPS_WindSpeed_IsbL-0900_LatLon0.15_PT111H.grib2 2026-04-22 04:33 1.9M
20260422T00Z_MSC_GDPS_WindSpeed_IsbL-0925_LatLon0.15_PT111H.grib2 2026-04-22 04:33 1.9M
20260422T00Z_MSC_GDPS_WindSpeed_IsbL-0950_LatLon0.15_PT111H.grib2 2026-04-22 04:33 1.9M
20260422T00Z_MSC_GDPS_WindSpeed_IsbL-0970_LatLon0.15_PT111H.grib2 2026-04-22 04:33 1.9M
20260422T00Z_MSC_GDPS_WindSpeed_IsbL-0985_LatLon0.15_PT111H.grib2 2026-04-22 04:33 1.9M
20260422T00Z_MSC_GDPS_WindSpeed_IsbL-1000_LatLon0.15_PT111H.grib2 2026-04-22 04:33 1.9M
20260422T00Z_MSC_GDPS_WindSpeed_IsbL-1015_LatLon0.15_PT111H.grib2 2026-04-22 04:33 1.8M
20260422T00Z_MSC_GDPS_WindU_AGL-10m_LatLon0.15_PT111H.grib2 2026-04-22 04:33 1.3M
20260422T00Z_MSC_GDPS_WindU_AGL-120m_LatLon0.15_PT111H.grib2 2026-04-22 04:33 1.0M
20260422T00Z_MSC_GDPS_WindU_AGL-40m_LatLon0.15_PT111H.grib2 2026-04-22 04:33 1.0M
20260422T00Z_MSC_GDPS_WindU_AGL-80m_LatLon0.15_PT111H.grib2 2026-04-22 04:33 1.0M
20260422T00Z_MSC_GDPS_WindU_IsbL-0001_LatLon0.15_PT111H.grib2 2026-04-22 04:33 497K
20260422T00Z_MSC_GDPS_WindU_IsbL-0005_LatLon0.15_PT111H.grib2 2026-04-22 04:33 688K
20260422T00Z_MSC_GDPS_WindU_IsbL-0010_LatLon0.15_PT111H.grib2 2026-04-22 04:33 699K
20260422T00Z_MSC_GDPS_WindU_IsbL-0020_LatLon0.15_PT111H.grib2 2026-04-22 04:33 732K
20260422T00Z_MSC_GDPS_WindU_IsbL-0030_LatLon0.15_PT111H.grib2 2026-04-22 04:33 734K
20260422T00Z_MSC_GDPS_WindU_IsbL-0050_LatLon0.15_PT111H.grib2 2026-04-22 04:33 695K
20260422T00Z_MSC_GDPS_WindU_IsbL-0100_LatLon0.15_PT111H.grib2 2026-04-22 04:33 904K
20260422T00Z_MSC_GDPS_WindU_IsbL-0150_LatLon0.15_PT111H.grib2 2026-04-22 04:33 1.0M
20260422T00Z_MSC_GDPS_WindU_IsbL-0175_LatLon0.15_PT111H.grib2 2026-04-22 04:33 1.0M
20260422T00Z_MSC_GDPS_WindU_IsbL-0200_LatLon0.15_PT111H.grib2 2026-04-22 04:33 836K
20260422T00Z_MSC_GDPS_WindU_IsbL-0225_LatLon0.15_PT111H.grib2 2026-04-22 04:33 848K
20260422T00Z_MSC_GDPS_WindU_IsbL-0250_LatLon0.15_PT111H.grib2 2026-04-22 04:33 849K
20260422T00Z_MSC_GDPS_WindU_IsbL-0275_LatLon0.15_PT111H.grib2 2026-04-22 04:33 876K
20260422T00Z_MSC_GDPS_WindU_IsbL-0300_LatLon0.15_PT111H.grib2 2026-04-22 04:33 868K
20260422T00Z_MSC_GDPS_WindU_IsbL-0350_LatLon0.15_PT111H.grib2 2026-04-22 04:33 885K
20260422T00Z_MSC_GDPS_WindU_IsbL-0400_LatLon0.15_PT111H.grib2 2026-04-22 04:33 1.1M
20260422T00Z_MSC_GDPS_WindU_IsbL-0450_LatLon0.15_PT111H.grib2 2026-04-22 04:33 1.1M
20260422T00Z_MSC_GDPS_WindU_IsbL-0500_LatLon0.15_PT111H.grib2 2026-04-22 04:33 1.1M
20260422T00Z_MSC_GDPS_WindU_IsbL-0550_LatLon0.15_PT111H.grib2 2026-04-22 04:33 1.1M
20260422T00Z_MSC_GDPS_WindU_IsbL-0600_LatLon0.15_PT111H.grib2 2026-04-22 04:33 1.1M
20260422T00Z_MSC_GDPS_WindU_IsbL-0650_LatLon0.15_PT111H.grib2 2026-04-22 04:33 1.2M
20260422T00Z_MSC_GDPS_WindU_IsbL-0700_LatLon0.15_PT111H.grib2 2026-04-22 04:33 1.2M
20260422T00Z_MSC_GDPS_WindU_IsbL-0750_LatLon0.15_PT111H.grib2 2026-04-22 04:33 1.2M
20260422T00Z_MSC_GDPS_WindU_IsbL-0800_LatLon0.15_PT111H.grib2 2026-04-22 04:33 1.4M
20260422T00Z_MSC_GDPS_WindU_IsbL-0850_LatLon0.15_PT111H.grib2 2026-04-22 04:33 1.4M
20260422T00Z_MSC_GDPS_WindU_IsbL-0875_LatLon0.15_PT111H.grib2 2026-04-22 04:33 1.5M
20260422T00Z_MSC_GDPS_WindU_IsbL-0900_LatLon0.15_PT111H.grib2 2026-04-22 04:33 1.5M
20260422T00Z_MSC_GDPS_WindU_IsbL-0925_LatLon0.15_PT111H.grib2 2026-04-22 04:33 1.5M
20260422T00Z_MSC_GDPS_WindU_IsbL-0950_LatLon0.15_PT111H.grib2 2026-04-22 04:33 1.4M
20260422T00Z_MSC_GDPS_WindU_IsbL-0970_LatLon0.15_PT111H.grib2 2026-04-22 04:33 1.4M
20260422T00Z_MSC_GDPS_WindU_IsbL-0985_LatLon0.15_PT111H.grib2 2026-04-22 04:33 1.4M
20260422T00Z_MSC_GDPS_WindU_IsbL-1000_LatLon0.15_PT111H.grib2 2026-04-22 04:33 1.4M
20260422T00Z_MSC_GDPS_WindU_IsbL-1015_LatLon0.15_PT111H.grib2 2026-04-22 04:33 1.4M
20260422T00Z_MSC_GDPS_WindV_AGL-10m_LatLon0.15_PT111H.grib2 2026-04-22 04:33 1.3M
20260422T00Z_MSC_GDPS_WindV_AGL-120m_LatLon0.15_PT111H.grib2 2026-04-22 04:33 1.0M
20260422T00Z_MSC_GDPS_WindV_AGL-40m_LatLon0.15_PT111H.grib2 2026-04-22 04:33 1.0M
20260422T00Z_MSC_GDPS_WindV_AGL-80m_LatLon0.15_PT111H.grib2 2026-04-22 04:33 1.0M
20260422T00Z_MSC_GDPS_WindV_IsbL-0001_LatLon0.15_PT111H.grib2 2026-04-22 04:33 767K
20260422T00Z_MSC_GDPS_WindV_IsbL-0005_LatLon0.15_PT111H.grib2 2026-04-22 04:33 851K
20260422T00Z_MSC_GDPS_WindV_IsbL-0010_LatLon0.15_PT111H.grib2 2026-04-22 04:33 877K
20260422T00Z_MSC_GDPS_WindV_IsbL-0020_LatLon0.15_PT111H.grib2 2026-04-22 04:33 845K
20260422T00Z_MSC_GDPS_WindV_IsbL-0030_LatLon0.15_PT111H.grib2 2026-04-22 04:33 844K
20260422T00Z_MSC_GDPS_WindV_IsbL-0050_LatLon0.15_PT111H.grib2 2026-04-22 04:33 899K
20260422T00Z_MSC_GDPS_WindV_IsbL-0100_LatLon0.15_PT111H.grib2 2026-04-22 04:33 1.0M
20260422T00Z_MSC_GDPS_WindV_IsbL-0150_LatLon0.15_PT111H.grib2 2026-04-22 04:33 1.0M
20260422T00Z_MSC_GDPS_WindV_IsbL-0175_LatLon0.15_PT111H.grib2 2026-04-22 04:33 1.0M
20260422T00Z_MSC_GDPS_WindV_IsbL-0200_LatLon0.15_PT111H.grib2 2026-04-22 04:33 834K
20260422T00Z_MSC_GDPS_WindV_IsbL-0225_LatLon0.15_PT111H.grib2 2026-04-22 04:33 845K
20260422T00Z_MSC_GDPS_WindV_IsbL-0250_LatLon0.15_PT111H.grib2 2026-04-22 04:33 845K
20260422T00Z_MSC_GDPS_WindV_IsbL-0275_LatLon0.15_PT111H.grib2 2026-04-22 04:33 870K
20260422T00Z_MSC_GDPS_WindV_IsbL-0300_LatLon0.15_PT111H.grib2 2026-04-22 04:33 861K
20260422T00Z_MSC_GDPS_WindV_IsbL-0350_LatLon0.15_PT111H.grib2 2026-04-22 04:33 876K
20260422T00Z_MSC_GDPS_WindV_IsbL-0400_LatLon0.15_PT111H.grib2 2026-04-22 04:33 875K
20260422T00Z_MSC_GDPS_WindV_IsbL-0450_LatLon0.15_PT111H.grib2 2026-04-22 04:33 1.1M
20260422T00Z_MSC_GDPS_WindV_IsbL-0500_LatLon0.15_PT111H.grib2 2026-04-22 04:33 1.1M
20260422T00Z_MSC_GDPS_WindV_IsbL-0550_LatLon0.15_PT111H.grib2 2026-04-22 04:33 1.1M
20260422T00Z_MSC_GDPS_WindV_IsbL-0600_LatLon0.15_PT111H.grib2 2026-04-22 04:33 1.1M
20260422T00Z_MSC_GDPS_WindV_IsbL-0650_LatLon0.15_PT111H.grib2 2026-04-22 04:33 1.2M
20260422T00Z_MSC_GDPS_WindV_IsbL-0700_LatLon0.15_PT111H.grib2 2026-04-22 04:33 1.2M
20260422T00Z_MSC_GDPS_WindV_IsbL-0750_LatLon0.15_PT111H.grib2 2026-04-22 04:33 1.3M
20260422T00Z_MSC_GDPS_WindV_IsbL-0800_LatLon0.15_PT111H.grib2 2026-04-22 04:33 1.4M
20260422T00Z_MSC_GDPS_WindV_IsbL-0850_LatLon0.15_PT111H.grib2 2026-04-22 04:33 1.4M
20260422T00Z_MSC_GDPS_WindV_IsbL-0875_LatLon0.15_PT111H.grib2 2026-04-22 04:33 1.4M
20260422T00Z_MSC_GDPS_WindV_IsbL-0900_LatLon0.15_PT111H.grib2 2026-04-22 04:33 1.5M
20260422T00Z_MSC_GDPS_WindV_IsbL-0925_LatLon0.15_PT111H.grib2 2026-04-22 04:33 1.5M
20260422T00Z_MSC_GDPS_WindV_IsbL-0950_LatLon0.15_PT111H.grib2 2026-04-22 04:33 1.4M
20260422T00Z_MSC_GDPS_WindV_IsbL-0970_LatLon0.15_PT111H.grib2 2026-04-22 04:33 1.4M
20260422T00Z_MSC_GDPS_WindV_IsbL-0985_LatLon0.15_PT111H.grib2 2026-04-22 04:33 1.4M
20260422T00Z_MSC_GDPS_WindV_IsbL-1000_LatLon0.15_PT111H.grib2 2026-04-22 04:33 1.4M
20260422T00Z_MSC_GDPS_WindV_IsbL-1015_LatLon0.15_PT111H.grib2 2026-04-22 04:33 1.4M